Year,Month,Day,Hour,Minute,Value (Times are PST for windgust in km/hr)
2011,02,28,00,00,17.70
2011,02,28,00,01,16.10
2011,02,28,00,02,8.10
2011,02,28,00,03,11.30
2011,02,28,00,04,12.90
2011,02,28,00,05,19.30
2011,02,28,00,06,22.50
2011,02,28,00,07,19.30
2011,02,28,00,08,22.50
2011,02,28,00,09,17.70
2011,02,28,00,10,11.30
2011,02,28,00,11,19.30
2011,02,28,00,12,16.10
2011,02,28,00,13,11.30
2011,02,28,00,14,6.40
2011,02,28,00,15,11.30
2011,02,28,00,16,4.80
2011,02,28,00,17,9.60
2011,02,28,00,18,8.10
2011,02,28,00,19,3.20
2011,02,28,00,20,3.20
2011,02,28,00,21,8.10
2011,02,28,00,22,4.80
2011,02,28,00,23,6.40
2011,02,28,00,24,8.10
2011,02,28,00,25,6.40
2011,02,28,00,26,8.10
2011,02,28,00,27,4.80
2011,02,28,00,28,4.80
2011,02,28,00,29,3.20
2011,02,28,00,30,3.20
2011,02,28,00,31,6.40
2011,02,28,00,32,6.40
2011,02,28,00,33,8.10
2011,02,28,00,34,6.40
2011,02,28,00,35,3.20
2011,02,28,00,36,4.80
2011,02,28,00,37,1.60
2011,02,28,00,38,4.80
2011,02,28,00,39,4.80
2011,02,28,00,40,4.80
2011,02,28,00,41,3.20
2011,02,28,00,42,3.20
2011,02,28,00,43,3.20
2011,02,28,00,44,4.80
2011,02,28,00,45,6.40
2011,02,28,00,46,6.40
2011,02,28,00,47,3.20
2011,02,28,00,48,4.80
2011,02,28,00,49,3.20
2011,02,28,00,50,3.20
2011,02,28,00,51,1.60
2011,02,28,00,52,3.20
2011,02,28,00,53,3.20
2011,02,28,00,54,3.20
2011,02,28,00,55,4.80
2011,02,28,00,56,1.60
2011,02,28,00,57,3.20
2011,02,28,00,58,6.40
2011,02,28,00,59,6.40
2011,02,28,01,00,3.20
2011,02,28,01,01,3.20
2011,02,28,01,02,3.20
2011,02,28,01,03,3.20
2011,02,28,01,04,4.80
2011,02,28,01,05,6.40
2011,02,28,01,06,1.60
2011,02,28,01,07,3.20
2011,02,28,01,08,3.20
2011,02,28,01,09,3.20
2011,02,28,01,10,1.60
2011,02,28,01,11,4.80
2011,02,28,01,12,6.40
2011,02,28,01,13,4.80
2011,02,28,01,14,3.20
2011,02,28,01,15,6.40
2011,02,28,01,16,8.10
2011,02,28,01,17,8.10
2011,02,28,01,18,9.60
2011,02,28,01,19,6.40
2011,02,28,01,20,4.80
2011,02,28,01,21,3.20
2011,02,28,01,22,4.80
2011,02,28,01,23,4.80
2011,02,28,01,24,3.20
2011,02,28,01,25,1.60
2011,02,28,01,26,3.20
2011,02,28,01,27,3.20
2011,02,28,01,28,8.10
2011,02,28,01,29,8.10
2011,02,28,01,30,3.20
2011,02,28,01,31,3.20
2011,02,28,01,32,12.90
2011,02,28,01,33,6.40
2011,02,28,01,34,6.40
2011,02,28,01,35,14.50
2011,02,28,01,36,12.90
2011,02,28,01,37,14.50
2011,02,28,01,38,11.30
2011,02,28,01,39,14.50
2011,02,28,01,40,12.90
2011,02,28,01,41,8.10
2011,02,28,01,42,4.80
2011,02,28,01,43,14.50
2011,02,28,01,44,14.50
2011,02,28,01,45,6.40
2011,02,28,01,46,11.30
2011,02,28,01,47,9.60
2011,02,28,01,48,9.60
2011,02,28,01,49,8.10
2011,02,28,01,50,6.40
2011,02,28,01,51,12.90
2011,02,28,01,52,9.60
2011,02,28,01,53,6.40
2011,02,28,01,54,3.20
2011,02,28,01,55,4.80
2011,02,28,01,56,6.40
2011,02,28,01,57,6.40
2011,02,28,01,58,6.40
2011,02,28,01,59,4.80
2011,02,28,02,00,4.80
2011,02,28,02,01,6.40
2011,02,28,02,02,6.40
2011,02,28,02,03,11.30
2011,02,28,02,04,6.40
2011,02,28,02,05,4.80
2011,02,28,02,06,4.80
2011,02,28,02,07,8.10
2011,02,28,02,08,14.50
2011,02,28,02,09,14.50
2011,02,28,02,10,9.60
2011,02,28,02,11,16.10
2011,02,28,02,12,14.50
2011,02,28,02,13,11.30
2011,02,28,02,14,11.30
2011,02,28,02,15,19.30
2011,02,28,02,16,11.30
2011,02,28,02,17,12.90
2011,02,28,02,18,12.90
2011,02,28,02,19,9.60
2011,02,28,02,20,8.10
2011,02,28,02,21,12.90
2011,02,28,02,22,12.90
2011,02,28,02,23,9.60
2011,02,28,02,24,14.50
2011,02,28,02,25,14.50
2011,02,28,02,26,16.10
2011,02,28,02,27,9.60
2011,02,28,02,28,12.90
2011,02,28,02,29,8.10
2011,02,28,02,30,9.60
2011,02,28,02,31,14.50
2011,02,28,02,32,14.50
2011,02,28,02,33,9.60
2011,02,28,02,34,8.10
2011,02,28,02,35,11.30
2011,02,28,02,36,9.60
2011,02,28,02,37,9.60
2011,02,28,02,38,11.30
2011,02,28,02,39,6.40
2011,02,28,02,40,3.20
2011,02,28,02,42,3.20
2011,02,28,02,43,4.80
2011,02,28,02,44,4.80
2011,02,28,02,45,1.60
2011,02,28,02,46,4.80
2011,02,28,02,47,8.10
2011,02,28,02,48,3.20
2011,02,28,02,49,1.60
2011,02,28,02,53,4.80
2011,02,28,02,54,1.60
2011,02,28,02,55,4.80
2011,02,28,02,56,3.20
2011,02,28,02,57,4.80
2011,02,28,02,58,3.20
2011,02,28,02,59,1.60
2011,02,28,03,00,1.60
2011,02,28,03,01,1.60
2011,02,28,03,02,1.60
2011,02,28,03,06,3.20
2011,02,28,03,07,3.20
2011,02,28,03,08,1.60
2011,02,28,03,09,1.60
2011,02,28,03,10,3.20
2011,02,28,03,11,4.80
2011,02,28,03,12,3.20
2011,02,28,03,13,1.60
2011,02,28,03,15,3.20
2011,02,28,03,16,1.60
2011,02,28,03,17,3.20
2011,02,28,03,18,3.20
2011,02,28,03,19,3.20
2011,02,28,03,20,3.20
2011,02,28,03,21,1.60
2011,02,28,03,24,1.60
2011,02,28,03,25,3.20
2011,02,28,03,26,1.60
2011,02,28,03,27,3.20
2011,02,28,03,28,3.20
2011,02,28,03,29,3.20
2011,02,28,03,30,3.20
2011,02,28,03,31,1.60
2011,02,28,03,32,1.60
2011,02,28,03,33,1.60
2011,02,28,03,35,1.60
2011,02,28,03,36,3.20
2011,02,28,03,37,3.20
2011,02,28,03,38,3.20
2011,02,28,03,39,3.20
2011,02,28,03,49,1.60
2011,02,28,03,50,1.60
2011,02,28,03,51,1.60
2011,02,28,03,52,3.20
2011,02,28,03,53,3.20
2011,02,28,03,54,1.60
2011,02,28,03,55,1.60
2011,02,28,03,57,3.20
2011,02,28,03,58,3.20
2011,02,28,03,59,1.60
2011,02,28,04,00,3.20
2011,02,28,04,01,1.60
2011,02,28,04,02,1.60
2011,02,28,04,03,3.20
2011,02,28,04,04,6.40
2011,02,28,04,05,8.10
2011,02,28,04,06,8.10
2011,02,28,04,07,3.20
2011,02,28,04,08,6.40
2011,02,28,04,09,6.40
2011,02,28,04,10,3.20
2011,02,28,04,12,1.60
2011,02,28,04,13,3.20
2011,02,28,04,14,6.40
2011,02,28,04,15,4.80
2011,02,28,04,16,3.20
2011,02,28,04,17,1.60
2011,02,28,04,18,1.60
2011,02,28,04,19,3.20
2011,02,28,04,20,3.20
2011,02,28,04,21,1.60
2011,02,28,04,22,1.60
2011,02,28,04,23,6.40
2011,02,28,04,24,3.20
2011,02,28,04,25,8.10
2011,02,28,04,26,8.10
2011,02,28,04,27,8.10
2011,02,28,04,28,6.40
2011,02,28,04,29,8.10
2011,02,28,04,30,9.60
2011,02,28,04,31,8.10
2011,02,28,04,32,3.20
2011,02,28,04,33,1.60
2011,02,28,04,34,6.40
2011,02,28,04,35,3.20
2011,02,28,04,36,3.20
2011,02,28,04,37,3.20
2011,02,28,04,38,1.60
2011,02,28,04,39,1.60
2011,02,28,04,40,6.40
2011,02,28,04,41,4.80
2011,02,28,04,42,4.80
2011,02,28,04,43,12.90
2011,02,28,04,44,12.90
2011,02,28,04,45,8.10
2011,02,28,04,46,8.10
2011,02,28,04,47,14.50
2011,02,28,04,48,11.30
2011,02,28,04,49,9.60
2011,02,28,04,50,1.60
2011,02,28,04,51,1.60
2011,02,28,04,52,4.80
2011,02,28,04,53,20.90
2011,02,28,04,54,17.70
2011,02,28,04,55,20.90
2011,02,28,04,56,11.30
2011,02,28,04,57,9.60
2011,02,28,04,58,22.50
2011,02,28,04,59,22.50
2011,02,28,05,00,11.30
2011,02,28,05,01,9.60
2011,02,28,05,02,9.60
2011,02,28,05,03,11.30
2011,02,28,05,04,9.60
2011,02,28,05,05,16.10
2011,02,28,05,06,14.50
2011,02,28,05,07,8.10
2011,02,28,05,08,12.90
2011,02,28,05,09,8.10
2011,02,28,05,10,8.10
2011,02,28,05,11,11.30
2011,02,28,05,12,8.10
2011,02,28,05,13,3.20
2011,02,28,05,14,8.10
2011,02,28,05,15,9.60
2011,02,28,05,16,9.60
2011,02,28,05,17,6.40
2011,02,28,05,18,8.10
2011,02,28,05,19,9.60
2011,02,28,05,20,8.10
2011,02,28,05,21,4.80
2011,02,28,05,22,8.10
2011,02,28,05,23,6.40
2011,02,28,05,24,6.40
2011,02,28,05,25,4.80
2011,02,28,05,26,6.40
2011,02,28,05,27,6.40
2011,02,28,05,28,8.10
2011,02,28,05,29,6.40
2011,02,28,05,30,8.10
2011,02,28,05,31,4.80
2011,02,28,05,32,4.80
2011,02,28,05,33,4.80
2011,02,28,05,34,4.80
2011,02,28,05,35,1.60
2011,02,28,05,36,1.60
2011,02,28,05,37,3.20
2011,02,28,05,38,4.80
2011,02,28,05,39,1.60
2011,02,28,05,40,1.60
2011,02,28,05,41,3.20
2011,02,28,05,42,3.20
2011,02,28,05,43,3.20
2011,02,28,05,44,3.20
2011,02,28,05,45,4.80
2011,02,28,05,46,4.80
2011,02,28,05,47,4.80
2011,02,28,05,48,4.80
2011,02,28,05,49,3.20
2011,02,28,05,50,6.40
2011,02,28,05,51,3.20
2011,02,28,05,52,9.60
2011,02,28,05,53,8.10
2011,02,28,05,54,8.10
2011,02,28,05,55,8.10
2011,02,28,05,56,3.20
2011,02,28,05,57,3.20
2011,02,28,05,58,3.20
2011,02,28,05,59,3.20
2011,02,28,06,01,1.60
2011,02,28,06,02,1.60
2011,02,28,06,03,1.60
2011,02,28,06,04,1.60
2011,02,28,06,05,3.20
2011,02,28,06,06,1.60
2011,02,28,06,07,3.20
2011,02,28,06,08,3.20
2011,02,28,06,09,6.40
2011,02,28,06,10,3.20
2011,02,28,06,11,3.20
2011,02,28,06,12,1.60
2011,02,28,06,13,3.20
2011,02,28,06,14,3.20
2011,02,28,06,15,3.20
2011,02,28,06,16,3.20
2011,02,28,06,19,1.60
2011,02,28,06,20,1.60
2011,02,28,06,21,1.60
2011,02,28,06,22,1.60
2011,02,28,06,23,3.20
2011,02,28,06,24,3.20
2011,02,28,06,25,3.20
2011,02,28,06,26,3.20
2011,02,28,06,27,3.20
2011,02,28,06,28,6.40
2011,02,28,06,29,8.10
2011,02,28,06,30,8.10
2011,02,28,06,31,11.30
2011,02,28,06,32,11.30
2011,02,28,06,33,11.30
2011,02,28,06,34,12.90
2011,02,28,06,35,11.30
2011,02,28,06,36,11.30
2011,02,28,06,37,11.30
2011,02,28,06,38,11.30
2011,02,28,06,39,11.30
2011,02,28,06,40,8.10
2011,02,28,06,41,9.60
2011,02,28,06,42,9.60
2011,02,28,06,43,6.40
2011,02,28,06,44,9.60
2011,02,28,06,45,8.10
2011,02,28,06,46,6.40
2011,02,28,06,47,3.20
2011,02,28,06,48,8.10
2011,02,28,06,49,6.40
2011,02,28,06,50,8.10
2011,02,28,06,51,9.60
2011,02,28,06,52,6.40
2011,02,28,06,53,8.10
2011,02,28,06,54,8.10
2011,02,28,06,55,3.20
2011,02,28,06,56,6.40
2011,02,28,06,57,8.10
2011,02,28,06,58,12.90
2011,02,28,06,59,6.40
2011,02,28,07,00,1.60
2011,02,28,07,01,3.20
2011,02,28,07,02,3.20
2011,02,28,07,03,3.20
2011,02,28,07,04,1.60
2011,02,28,07,05,8.10
2011,02,28,07,06,6.40
2011,02,28,07,07,6.40
2011,02,28,07,08,6.40
2011,02,28,07,09,6.40
2011,02,28,07,10,9.60
2011,02,28,07,11,14.50
2011,02,28,07,12,9.60
2011,02,28,07,13,8.10
2011,02,28,07,14,3.20
2011,02,28,07,15,6.40
2011,02,28,07,16,6.40
2011,02,28,07,17,6.40
2011,02,28,07,18,4.80
2011,02,28,07,19,4.80
2011,02,28,07,20,3.20
2011,02,28,07,21,4.80
2011,02,28,07,22,4.80
2011,02,28,07,23,3.20
2011,02,28,07,24,4.80
2011,02,28,07,25,6.40
2011,02,28,07,26,4.80
2011,02,28,07,27,6.40
2011,02,28,07,28,6.40
2011,02,28,07,29,8.10
2011,02,28,07,30,8.10
2011,02,28,07,31,8.10
2011,02,28,07,32,8.10
2011,02,28,07,33,3.20
2011,02,28,07,34,3.20
2011,02,28,07,35,8.10
2011,02,28,07,36,6.40
2011,02,28,07,37,3.20
2011,02,28,07,38,6.40
2011,02,28,07,39,3.20
2011,02,28,07,40,6.40
2011,02,28,07,41,3.20
2011,02,28,07,42,6.40
2011,02,28,07,43,1.60
2011,02,28,07,44,1.60
2011,02,28,07,46,1.60
2011,02,28,07,47,3.20
2011,02,28,07,48,1.60
2011,02,28,07,49,3.20
2011,02,28,07,50,1.60
2011,02,28,07,51,1.60
2011,02,28,07,56,3.20
2011,02,28,07,57,3.20
2011,02,28,07,58,3.20
2011,02,28,07,59,6.40
2011,02,28,08,00,3.20
2011,02,28,08,02,6.40
2011,02,28,08,03,6.40
2011,02,28,08,04,8.10
2011,02,28,08,05,6.40
2011,02,28,08,06,6.40
2011,02,28,08,07,6.40
2011,02,28,08,08,4.80
2011,02,28,08,09,3.20
2011,02,28,08,10,3.20
2011,02,28,08,11,8.10
2011,02,28,08,12,8.10
2011,02,28,08,13,8.10
2011,02,28,08,14,8.10
2011,02,28,08,15,8.10
2011,02,28,08,16,6.40
2011,02,28,08,17,6.40
2011,02,28,08,18,3.20
2011,02,28,08,19,6.40
2011,02,28,08,20,8.10
2011,02,28,08,21,8.10
2011,02,28,08,22,6.40
2011,02,28,08,23,8.10
2011,02,28,08,24,3.20
2011,02,28,08,25,6.40
2011,02,28,08,26,6.40
2011,02,28,08,27,3.20
2011,02,28,08,28,3.20
2011,02,28,08,29,8.10
2011,02,28,08,30,8.10
2011,02,28,08,31,3.20
2011,02,28,08,32,1.60
2011,02,28,08,33,1.60
2011,02,28,08,34,3.20
2011,02,28,08,35,3.20
2011,02,28,08,36,1.60
2011,02,28,08,37,1.60
2011,02,28,08,38,3.20
2011,02,28,08,39,1.60
2011,02,28,08,40,1.60
2011,02,28,08,41,1.60
2011,02,28,08,42,3.20
2011,02,28,08,43,6.40
2011,02,28,08,44,3.20
2011,02,28,08,45,3.20
2011,02,28,08,46,9.60
2011,02,28,08,47,9.60
2011,02,28,08,48,9.60
2011,02,28,08,49,9.60
2011,02,28,08,50,9.60
2011,02,28,08,51,9.60
2011,02,28,08,52,9.60
2011,02,28,08,53,11.30
2011,02,28,08,54,9.60
2011,02,28,08,55,9.60
2011,02,28,08,56,11.30
2011,02,28,08,57,9.60
2011,02,28,08,58,9.60
2011,02,28,08,59,8.10
2011,02,28,09,00,11.30
2011,02,28,09,01,8.10
2011,02,28,09,02,12.90
2011,02,28,09,03,12.90
2011,02,28,09,04,11.30
2011,02,28,09,05,14.50
2011,02,28,09,06,11.30
2011,02,28,09,07,12.90
2011,02,28,09,08,11.30
2011,02,28,09,09,14.50
2011,02,28,09,10,8.10
2011,02,28,09,11,11.30
2011,02,28,09,12,14.50
2011,02,28,09,13,12.90
2011,02,28,09,14,9.60
2011,02,28,09,15,11.30
2011,02,28,09,16,11.30
2011,02,28,09,17,12.90
2011,02,28,09,18,14.50
2011,02,28,09,19,11.30
2011,02,28,09,20,14.50
2011,02,28,09,21,9.60
2011,02,28,09,22,12.90
2011,02,28,09,23,16.10
2011,02,28,09,24,11.30
2011,02,28,09,25,8.10
2011,02,28,09,26,8.10
2011,02,28,09,27,14.50
2011,02,28,09,28,9.60
2011,02,28,09,29,9.60
2011,02,28,09,30,12.90
2011,02,28,09,31,9.60
2011,02,28,09,32,8.10
2011,02,28,09,33,9.60
2011,02,28,09,34,14.50
2011,02,28,09,35,12.90
2011,02,28,09,36,8.10
2011,02,28,09,37,8.10
2011,02,28,09,38,11.30
2011,02,28,09,39,12.90
2011,02,28,09,40,12.90
2011,02,28,09,41,9.60
2011,02,28,09,42,8.10
2011,02,28,09,43,8.10
2011,02,28,09,44,6.40
2011,02,28,09,45,8.10
2011,02,28,09,46,9.60
2011,02,28,09,47,6.40
2011,02,28,09,48,8.10
2011,02,28,09,49,9.60
2011,02,28,09,50,8.10
2011,02,28,09,51,6.40
2011,02,28,09,52,12.90
2011,02,28,09,53,12.90
2011,02,28,09,54,12.90
2011,02,28,09,55,11.30
2011,02,28,09,56,12.90
2011,02,28,09,57,16.10
2011,02,28,09,58,14.50
2011,02,28,09,59,12.90
2011,02,28,10,00,6.40
2011,02,28,10,01,12.90
2011,02,28,10,02,6.40
2011,02,28,10,03,11.30
2011,02,28,10,04,11.30
2011,02,28,10,05,12.90
2011,02,28,10,06,14.50
2011,02,28,10,07,9.60
2011,02,28,10,08,8.10
2011,02,28,10,09,9.60
2011,02,28,10,10,9.60
2011,02,28,10,11,16.10
2011,02,28,10,12,14.50
2011,02,28,10,13,9.60
2011,02,28,10,14,9.60
2011,02,28,10,15,8.10
2011,02,28,10,16,11.30
2011,02,28,10,17,9.60
2011,02,28,10,18,9.60
2011,02,28,10,19,12.90
2011,02,28,10,20,12.90
2011,02,28,10,21,8.10
2011,02,28,10,22,8.10
2011,02,28,10,23,6.40
2011,02,28,10,24,8.10
2011,02,28,10,25,8.10
2011,02,28,10,26,12.90
2011,02,28,10,27,9.60
2011,02,28,10,28,11.30
2011,02,28,10,29,9.60
2011,02,28,10,30,11.30
2011,02,28,10,31,17.70
2011,02,28,10,32,16.10
2011,02,28,10,33,14.50
2011,02,28,10,34,14.50
2011,02,28,10,35,8.10
2011,02,28,10,36,12.90
2011,02,28,10,37,12.90
2011,02,28,10,38,12.90
2011,02,28,10,39,11.30
2011,02,28,10,40,9.60
2011,02,28,10,41,11.30
2011,02,28,10,42,8.10
2011,02,28,10,43,9.60
2011,02,28,10,44,9.60
2011,02,28,10,45,9.60
2011,02,28,10,46,9.60
2011,02,28,10,47,8.10
2011,02,28,10,48,11.30
2011,02,28,10,49,9.60
2011,02,28,10,50,8.10
2011,02,28,10,51,8.10
2011,02,28,10,52,9.60
2011,02,28,10,53,9.60
2011,02,28,10,54,6.40
2011,02,28,10,55,11.30
2011,02,28,10,56,11.30
2011,02,28,10,57,14.50
2011,02,28,10,58,9.60
2011,02,28,10,59,11.30
2011,02,28,11,00,9.60
2011,02,28,11,01,9.60
2011,02,28,11,02,11.30
2011,02,28,11,03,9.60
2011,02,28,11,04,9.60
2011,02,28,11,05,6.40
2011,02,28,11,06,8.10
2011,02,28,11,07,11.30
2011,02,28,11,08,9.60
2011,02,28,11,09,8.10
2011,02,28,11,10,8.10
2011,02,28,11,11,8.10
2011,02,28,11,12,11.30
2011,02,28,11,13,11.30
2011,02,28,11,14,9.60
2011,02,28,11,15,9.60
2011,02,28,11,16,11.30
2011,02,28,11,17,9.60
2011,02,28,11,18,11.30
2011,02,28,11,19,11.30
2011,02,28,11,20,9.60
2011,02,28,11,21,12.90
2011,02,28,11,22,14.50
2011,02,28,11,23,11.30
2011,02,28,11,24,9.60
2011,02,28,11,25,12.90
2011,02,28,11,26,12.90
2011,02,28,11,27,11.30
2011,02,28,11,28,12.90
2011,02,28,11,29,8.10
2011,02,28,11,30,12.90
2011,02,28,11,31,12.90
2011,02,28,11,32,14.50
2011,02,28,11,33,9.60
2011,02,28,11,34,11.30
2011,02,28,11,35,12.90
2011,02,28,11,36,8.10
2011,02,28,11,37,8.10
2011,02,28,11,38,11.30
2011,02,28,11,39,11.30
2011,02,28,11,40,8.10
2011,02,28,11,41,6.40
2011,02,28,11,42,14.50
2011,02,28,11,43,11.30
2011,02,28,11,44,8.10
2011,02,28,11,45,12.90
2011,02,28,11,46,12.90
2011,02,28,11,47,12.90
2011,02,28,11,48,11.30
2011,02,28,11,49,12.90
2011,02,28,11,50,9.60
2011,02,28,11,51,12.90
2011,02,28,11,52,11.30
2011,02,28,11,53,11.30
2011,02,28,11,54,14.50
2011,02,28,11,55,16.10
2011,02,28,11,56,11.30
2011,02,28,11,57,12.90
2011,02,28,11,58,12.90
2011,02,28,11,59,14.50
2011,02,28,12,00,11.30
2011,02,28,12,01,14.50
2011,02,28,12,02,12.90
2011,02,28,12,03,9.60
2011,02,28,12,04,8.10
2011,02,28,12,05,11.30
2011,02,28,12,06,11.30
2011,02,28,12,07,9.60
2011,02,28,12,08,11.30
2011,02,28,12,09,9.60
2011,02,28,12,10,9.60
2011,02,28,12,11,3.20
2011,02,28,12,12,9.60
2011,02,28,12,13,12.90
2011,02,28,12,14,8.10
2011,02,28,12,15,6.40
2011,02,28,12,16,9.60
2011,02,28,12,17,9.60
2011,02,28,12,18,9.60
2011,02,28,12,19,8.10
2011,02,28,12,20,12.90
2011,02,28,12,21,9.60
2011,02,28,12,22,11.30
2011,02,28,12,23,9.60
2011,02,28,12,24,6.40
2011,02,28,12,25,8.10
2011,02,28,12,26,9.60
2011,02,28,12,27,9.60
2011,02,28,12,28,11.30
2011,02,28,12,29,14.50
2011,02,28,12,30,14.50
2011,02,28,12,31,11.30
2011,02,28,12,32,12.90
2011,02,28,12,33,11.30
2011,02,28,12,34,11.30
2011,02,28,12,35,9.60
2011,02,28,12,36,11.30
2011,02,28,12,37,9.60
2011,02,28,12,38,12.90
2011,02,28,12,39,9.60
2011,02,28,12,40,12.90
2011,02,28,12,41,8.10
2011,02,28,12,42,11.30
2011,02,28,12,43,20.90
2011,02,28,12,44,20.90
2011,02,28,12,45,16.10
2011,02,28,12,46,20.90
2011,02,28,12,47,17.70
2011,02,28,12,48,16.10
2011,02,28,12,49,16.10
2011,02,28,12,50,16.10
2011,02,28,12,51,17.70
2011,02,28,12,52,29.00
2011,02,28,12,53,20.90
2011,02,28,12,54,16.10
2011,02,28,12,55,19.30
2011,02,28,12,56,27.40
2011,02,28,12,57,16.10
2011,02,28,12,58,8.10
2011,02,28,12,59,6.40
2011,02,28,13,00,14.50
2011,02,28,13,01,6.40
2011,02,28,13,02,6.40
2011,02,28,13,03,8.10
2011,02,28,13,04,6.40
2011,02,28,13,05,8.10
2011,02,28,13,06,8.10
2011,02,28,13,07,8.10
2011,02,28,13,08,12.90
2011,02,28,13,09,9.60
2011,02,28,13,10,4.80
2011,02,28,13,11,4.80
2011,02,28,13,12,4.80
2011,02,28,13,13,6.40
2011,02,28,13,14,9.60
2011,02,28,13,15,8.10
2011,02,28,13,16,4.80
2011,02,28,13,17,3.20
2011,02,28,13,18,1.60
2011,02,28,13,19,4.80
2011,02,28,13,20,3.20
2011,02,28,13,21,1.60
2011,02,28,13,22,1.60
2011,02,28,13,23,1.60
2011,02,28,13,24,1.60
2011,02,28,13,25,1.60
2011,02,28,13,30,3.20
2011,02,28,13,31,1.60
2011,02,28,13,32,1.60
2011,02,28,13,33,4.80
2011,02,28,13,34,4.80
2011,02,28,13,35,4.80
2011,02,28,13,36,3.20
2011,02,28,13,37,4.80
2011,02,28,13,38,6.40
2011,02,28,13,39,6.40
2011,02,28,13,40,6.40
2011,02,28,13,41,4.80
2011,02,28,13,42,6.40
2011,02,28,13,43,6.40
2011,02,28,13,44,6.40
2011,02,28,13,45,6.40
2011,02,28,13,46,6.40
2011,02,28,13,47,6.40
2011,02,28,13,48,6.40
2011,02,28,13,49,3.20
2011,02,28,13,50,4.80
2011,02,28,13,51,1.60
2011,02,28,13,52,1.60
2011,02,28,13,53,3.20
2011,02,28,13,54,6.40
2011,02,28,13,55,3.20
2011,02,28,13,56,6.40
2011,02,28,13,57,6.40
2011,02,28,13,58,6.40
2011,02,28,13,59,6.40
2011,02,28,14,00,3.20
2011,02,28,14,01,3.20
2011,02,28,14,02,3.20
2011,02,28,14,03,3.20
2011,02,28,14,04,8.10
2011,02,28,14,05,3.20
2011,02,28,14,06,8.10
2011,02,28,14,07,9.60
2011,02,28,14,08,11.30
2011,02,28,14,09,9.60
2011,02,28,14,10,11.30
2011,02,28,14,11,11.30
2011,02,28,14,12,8.10
2011,02,28,14,13,9.60
2011,02,28,14,14,11.30
2011,02,28,14,15,14.50
2011,02,28,14,16,12.90
2011,02,28,14,17,19.30
2011,02,28,14,18,16.10
2011,02,28,14,19,12.90
2011,02,28,14,20,14.50
2011,02,28,14,21,11.30
2011,02,28,14,22,11.30
2011,02,28,14,23,11.30
2011,02,28,14,24,9.60
2011,02,28,14,25,8.10
2011,02,28,14,26,6.40
2011,02,28,14,27,8.10
2011,02,28,14,28,8.10
2011,02,28,14,29,9.60
2011,02,28,14,30,8.10
2011,02,28,14,31,9.60
2011,02,28,14,32,11.30
2011,02,28,14,33,8.10
2011,02,28,14,34,3.20
2011,02,28,14,35,3.20
2011,02,28,14,36,3.20
2011,02,28,14,37,9.60
2011,02,28,14,38,8.10
2011,02,28,14,39,9.60
2011,02,28,14,40,6.40
2011,02,28,14,41,3.20
2011,02,28,14,42,6.40
2011,02,28,14,43,6.40
2011,02,28,14,44,6.40
2011,02,28,14,45,9.60
2011,02,28,14,46,8.10
2011,02,28,14,47,9.60
2011,02,28,14,48,12.90
2011,02,28,14,49,11.30
2011,02,28,14,50,11.30
2011,02,28,14,51,9.60
2011,02,28,14,52,9.60
2011,02,28,14,53,16.10
2011,02,28,14,54,19.30
2011,02,28,14,55,12.90
2011,02,28,14,56,9.60
2011,02,28,14,57,8.10
2011,02,28,14,58,9.60
2011,02,28,14,59,4.80
2011,02,28,15,00,4.80
2011,02,28,15,01,11.30
2011,02,28,15,02,8.10
2011,02,28,15,03,12.90
2011,02,28,15,04,16.10
2011,02,28,15,05,25.70
2011,02,28,15,06,19.30
2011,02,28,15,07,20.90
2011,02,28,15,08,32.20
2011,02,28,15,09,32.20
2011,02,28,15,10,22.50
2011,02,28,15,11,25.70
2011,02,28,15,12,22.50
2011,02,28,15,13,22.50
2011,02,28,15,14,14.50
2011,02,28,15,15,14.50
2011,02,28,15,16,12.90
2011,02,28,15,17,19.30
2011,02,28,15,18,16.10
2011,02,28,15,19,14.50
2011,02,28,15,20,11.30
2011,02,28,15,21,14.50
2011,02,28,15,22,14.50
2011,02,28,15,23,14.50
2011,02,28,15,24,16.10
2011,02,28,15,25,8.10
2011,02,28,15,26,11.30
2011,02,28,15,27,12.90
2011,02,28,15,28,11.30
2011,02,28,15,29,12.90
2011,02,28,15,30,11.30
2011,02,28,15,31,12.90
2011,02,28,15,32,9.60
2011,02,28,15,33,6.40
2011,02,28,15,34,9.60
2011,02,28,15,35,8.10
2011,02,28,15,36,4.80
2011,02,28,15,37,6.40
2011,02,28,15,38,3.20
2011,02,28,15,40,1.60
2011,02,28,15,41,4.80
2011,02,28,15,42,6.40
2011,02,28,15,43,11.30
2011,02,28,15,44,6.40
2011,02,28,15,45,4.80
2011,02,28,15,46,11.30
2011,02,28,15,47,12.90
2011,02,28,15,48,8.10
2011,02,28,15,49,4.80
2011,02,28,15,50,11.30
2011,02,28,15,51,17.70
2011,02,28,15,52,11.30
2011,02,28,15,53,11.30
2011,02,28,15,54,9.60
2011,02,28,15,55,11.30
2011,02,28,15,56,9.60
2011,02,28,15,57,9.60
2011,02,28,15,58,6.40
2011,02,28,15,59,9.60
2011,02,28,16,00,11.30
2011,02,28,16,01,8.10
2011,02,28,16,02,9.60
2011,02,28,16,03,12.90
2011,02,28,16,04,11.30
2011,02,28,16,05,9.60
2011,02,28,16,06,8.10
2011,02,28,16,07,6.40
2011,02,28,16,08,6.40
2011,02,28,16,09,9.60
2011,02,28,16,10,8.10
2011,02,28,16,11,6.40
2011,02,28,16,12,9.60
2011,02,28,16,13,8.10
2011,02,28,16,14,6.40
2011,02,28,16,16,6.40
2011,02,28,16,17,6.40
2011,02,28,16,18,6.40
2011,02,28,16,19,6.40
2011,02,28,16,20,4.80
2011,02,28,16,21,4.80
2011,02,28,16,22,8.10
2011,02,28,16,23,6.40
2011,02,28,16,24,6.40
2011,02,28,16,25,8.10
2011,02,28,16,26,8.10
2011,02,28,16,27,8.10
2011,02,28,16,28,8.10
2011,02,28,16,29,6.40
2011,02,28,16,30,6.40
2011,02,28,16,31,8.10
2011,02,28,16,32,9.60
2011,02,28,16,33,9.60
2011,02,28,16,34,8.10
2011,02,28,16,35,12.90
2011,02,28,16,36,12.90
2011,02,28,16,37,12.90
2011,02,28,16,38,9.60
2011,02,28,16,39,8.10
2011,02,28,16,40,14.50
2011,02,28,16,41,6.40
2011,02,28,16,42,11.30
2011,02,28,16,43,14.50
2011,02,28,16,44,16.10
2011,02,28,16,45,14.50
2011,02,28,16,46,14.50
2011,02,28,16,47,16.10
2011,02,28,16,48,11.30
2011,02,28,16,49,12.90
2011,02,28,16,50,22.50
2011,02,28,16,51,19.30
2011,02,28,16,52,17.70
2011,02,28,16,53,17.70
2011,02,28,16,54,14.50
2011,02,28,16,55,17.70
2011,02,28,16,56,12.90
2011,02,28,16,57,12.90
2011,02,28,16,58,12.90
2011,02,28,16,59,14.50
2011,02,28,17,00,17.70
2011,02,28,17,01,12.90
2011,02,28,17,02,12.90
2011,02,28,17,03,12.90
2011,02,28,17,04,9.60
2011,02,28,17,05,11.30
2011,02,28,17,06,9.60
2011,02,28,17,07,16.10
2011,02,28,17,08,14.50
2011,02,28,17,09,12.90
2011,02,28,17,10,9.60
2011,02,28,17,11,16.10
2011,02,28,17,12,8.10
2011,02,28,17,13,12.90
2011,02,28,17,14,11.30
2011,02,28,17,15,8.10
2011,02,28,17,16,9.60
2011,02,28,17,17,12.90
2011,02,28,17,18,12.90
2011,02,28,17,19,14.50
2011,02,28,17,20,11.30
2011,02,28,17,21,9.60
2011,02,28,17,22,11.30
2011,02,28,17,23,17.70
2011,02,28,17,24,16.10
2011,02,28,17,25,33.80
2011,02,28,17,26,25.70
2011,02,28,17,27,22.50
2011,02,28,17,28,22.50
2011,02,28,17,29,20.90
2011,02,28,17,30,24.20
2011,02,28,17,31,17.70
2011,02,28,17,32,19.30
2011,02,28,17,33,16.10
2011,02,28,17,34,14.50
2011,02,28,17,35,12.90
2011,02,28,17,36,12.90
2011,02,28,17,37,11.30
2011,02,28,17,38,8.10
2011,02,28,17,39,8.10
2011,02,28,17,40,8.10
2011,02,28,17,41,9.60
2011,02,28,17,42,12.90
2011,02,28,17,43,9.60
2011,02,28,17,44,4.80
2011,02,28,17,45,6.40
2011,02,28,17,46,6.40
2011,02,28,17,47,6.40
2011,02,28,17,48,6.40
2011,02,28,17,49,17.70
2011,02,28,17,50,11.30
2011,02,28,17,51,9.60
2011,02,28,17,52,4.80
2011,02,28,17,53,4.80
2011,02,28,17,54,6.40
2011,02,28,17,55,8.10
2011,02,28,17,56,4.80
2011,02,28,17,57,3.20
2011,02,28,17,58,3.20
2011,02,28,17,59,3.20
2011,02,28,18,00,1.60
2011,02,28,18,01,3.20
2011,02,28,18,04,1.60
2011,02,28,18,05,1.60
2011,02,28,18,06,3.20
2011,02,28,18,07,1.60
2011,02,28,18,10,1.60
2011,02,28,18,11,1.60
2011,02,28,18,19,1.60
2011,02,28,18,20,6.40
2011,02,28,18,21,3.20
2011,02,28,18,22,9.60
2011,02,28,18,23,11.30
2011,02,28,18,24,9.60
2011,02,28,18,25,20.90
2011,02,28,18,26,16.10
2011,02,28,18,27,20.90
2011,02,28,18,28,22.50
2011,02,28,18,29,22.50
2011,02,28,18,30,27.40
2011,02,28,18,31,24.20
2011,02,28,18,32,19.30
2011,02,28,18,33,19.30
2011,02,28,18,34,20.90
2011,02,28,18,35,17.70
2011,02,28,18,36,14.50
2011,02,28,18,37,12.90
2011,02,28,18,38,12.90
2011,02,28,18,39,12.90